FW3157 Weather Reports


time (UTC)temp
C
wind
direction
speed
KPH
gust
KPH
rain 1hr
cm
rain 24hr
cm
rain mn
cm
humidity
%
barometer
mb
20260902091106 31 150 3.2 6.4 0.00 0.05 0.05 62 1017.4
20260902090600 30 212 1.6 6.4 0.00 0.05 0.05 61 1017.3
20260902090054 30 217 1.6 4.8 0.00 0.05 0.05 62 1017.3
20260902085548 30 301 3.2 4.8 0.00 0.05 0.05 63 1017.3
20260902085042 30 266 3.2 6.4 0.00 0.05 0.05 62 1017.3
20260902084536 30 272 3.2 6.4 0.00 0.05 0.05 62 1017.4
20260902084030 29 235 1.6 6.4 0.00 0.05 0.05 64 1017.3
20260902083529 30 248 1.6 6.4 0.00 0.05 0.05 62 1017.3
20260902083027 30 217 1.6 6.4 0.00 0.05 0.05 63 1017.3
20260902082525 29 105 1.6 6.4 0.00 0.05 0.05 66 1017.4
20260902082025 29 210 3.2 6.4 0.00 0.05 0.05 66 1017.4
20260902081525 29 194 3.2 8.0 0.00 0.05 0.05 66 1017.3
20260902081025 28 162 3.2 8.0 0.00 0.05 0.05 67 1017.3
20260902080524 28 192 4.8 9.7 0.00 0.05 0.05 68 1017.3
20260902080025 28 250 4.8 9.7 0.00 0.05 0.05 68 1017.3
20260902075524 28 256 3.2 8.0 0.00 0.05 0.05 68 1017.3
20260902075024 28 249 3.2 6.4 0.00 0.05 0.05 69 1017.4
20260902074525 28 275 3.2 6.4 0.00 0.05 0.05 69 1017.4
20260902074025 28 273 3.2 6.4 0.00 0.05 0.05 69 1017.4
20260902073526 27 286 3.2 6.4 0.00 0.05 0.05 69 1017.3
20260902073025 27 288 3.2 4.8 0.00 0.05 0.05 69 1017.3
20260902072525 27 305 3.2 8.0 0.00 0.05 0.05 70 1017.2
20260902072023 27 274 3.2 8.0 0.00 0.05 0.05 70 1017.1
20260902071521 27 277 1.6 6.4 0.00 0.05 0.05 71 1017.2
20260902071017 27 242 1.6 4.8 0.00 0.05 0.05 74 1017.1
20260902070517 27 266 1.6 4.8 0.00 0.05 0.05 74 1017.2
20260902070017 26 285 1.6 4.8 0.00 0.05 0.05 76 1017.2
20260902065516 26 295 1.6 6.4 0.00 0.05 0.05 78 1017.2
20260902065017 26 309 1.6 6.4 0.00 0.05 0.05 77 1017.2
20260902064517 26 264 1.6 6.4 0.00 0.05 0.05 77 1017.2
20260902064237 26 299 3.2 6.4 0.00 0.05 0.05 78 1017.1
20260902063517 26 288 3.2 6.4 0.00 0.05 0.05 79 1017.1
20260902063017 26 308 3.2 6.4 0.00 0.05 0.05 79 1017.1
20260902062513 26 271 3.2 6.4 0.00 0.05 0.05 78 1017.1
20260902062013 26 276 1.6 6.4 0.00 0.05 0.05 77 1017.2
20260902061737 26 228 1.6 4.8 0.00 0.05 0.05 78 1017.2
20260902061236 26 228 1.6 4.8 0.00 0.05 0.05 78 1017.1
20260902060513 26 243 4.8 8.0 0.00 0.05 0.05 79 1017.1
20260902060012 25 247 4.8 8.0 0.00 0.05 0.05 80 1017.1
20260902055512 25 210 4.8 8.0 0.00 0.05 0.05 80 1017.1
20260902055012 25 248 4.8 8.0 0.00 0.05 0.05 81 1017.1
20260902054738 25 270 3.2 8.0 0.00 0.05 0.05 81 1017.1
20260902054006 25 255 3.2 6.4 0.00 0.05 0.05 81 1017.1
20260902053459 25 258 3.2 9.7 0.00 0.05 0.05 81 1017.1
20260902052954 26 276 3.2 9.7 0.00 0.05 0.05 80 1017.1
20260902052448 26 233 0.0 4.8 0.00 0.05 0.05 78 1017.2
20260902052205 26 4 0.0 1.6 0.00 0.05 0.05 78 1017.2
20260902051434 26 3 0.0 3.2 0.00 0.05 0.05 79 1017.1
20260902050932 25 1 1.6 3.2 0.00 0.05 0.05 80 1017.0
20260902050914 25 324 0.0 1.6 0.00 0.05 0.05 81 1016.9
20260902045932 25 262 0.0 1.6 0.00 0.05 0.05 81 1017.0
20260902045429 25 262 1.6 3.2 0.00 0.05 0.05 81 1017.0
20260902044929 25 262 1.6 3.2 0.00 0.05 0.05 81 1017.0
20260902044428 25 259 1.6 3.2 0.00 0.05 0.05 82 1016.9
20260902043927 25 267 3.2 4.8 0.00 0.05 0.05 83 1016.9
20260902043428 25 253 3.2 6.4 0.00 0.05 0.05 83 1016.9
20260902042926 25 271 3.2 6.4 0.00 0.05 0.05 83 1016.7
20260902042424 25 264 3.2 6.4 0.00 0.05 0.05 83 1016.6
20260902041923 25 291 4.8 8.0 0.00 0.05 0.05 84 1016.7
20260902041423 25 229 3.2 9.7 0.00 0.05 0.05 84 1016.7
20260902040922 25 306 1.6 9.7 0.00 0.05 0.05 84 1016.6
20260902040420 24 98 0.0 3.2 0.00 0.05 0.05 83 1016.6
20260902035918 24 98 0.0 1.6 0.00 0.05 0.05 84 1016.6
20260902035418 25 98 1.6 3.2 0.00 0.05 0.05 83 1016.5
20260902034918 25 98 1.6 3.2 0.00 0.05 0.05 83 1016.5
20260902034419 25 98 1.6 3.2 0.00 0.05 0.05 82 1016.5
20260902033913 25 98 3.2 4.8 0.00 0.05 0.05 82 1016.4
20260902033407 25 108 1.6 4.8 0.00 0.05 0.05 81 1016.4
20260902032901 25 98 1.6 3.2 0.00 0.05 0.05 81 1016.4
20260902032355 25 100 1.6 3.2 0.00 0.05 0.05 80 1016.4
20260902031849 25 102 1.6 3.2 0.00 0.05 0.05 79 1016.3
20260902031343 25 86 1.6 3.2 0.00 0.05 0.05 77 1016.3
20260902030837 25 86 1.6 3.2 0.00 0.05 0.05 75 1016.3
20260902030331 25 81 1.6 4.8 0.00 0.05 0.05 76 1016.3
20260902025825 25 81 3.2 6.4 0.00 0.05 0.05 77 1016.3
20260902025320 25 75 3.2 6.4 0.00 0.05 0.05 77 1016.3
20260902024813 25 21 1.6 4.8 0.00 0.05 0.05 77 1016.3
20260902024307 25 144 1.6 8.0 0.00 0.05 0.05 77 1016.3
20260902023801 25 91 1.6 8.0 0.00 0.05 0.05 77 1016.2
20260902023255 25 117 1.6 4.8 0.00 0.05 0.05 76 1016.2
20260902022750 25 99 1.6 4.8 0.03 0.05 0.05 76 1016.2
20260902022243 25 98 0.0 3.2 0.05 0.05 0.05 76 1016.3
20260902021957 25 98 1.6 9.7 0.05 0.05 0.05 76 1016.3
20260902021231 25 188 1.6 9.7 0.05 0.05 0.05 75 1016.3
20260902020725 25 177 1.6 8.0 0.05 0.05 0.05 76 1016.4
20260902020220 25 88 1.6 9.7 0.05 0.05 0.05 77 1016.3
20260902015713 26 155 3.2 9.7 0.05 0.05 0.05 78 1016.1
20260902015208 26 153 4.8 9.7 0.05 0.05 0.05 78 1016.0
20260902015149 26 127 4.8 12.9 0.05 0.05 0.05 77 1016.0
20260902014155 25 109 3.2 11.3 0.05 0.05 0.05 76 1015.9
20260902013649 26 86 3.2 12.9 0.05 0.05 0.05 74 1016.1
20260902013143 26 359 6.4 20.9 0.05 0.05 0.05 73 1016.1
20260902012854 27 90 1.6 8.0 0.00 0.00 0.00 69 1016.0
20260902012732 27 63 6.4 20.9 0.03 0.03 0.03 71 1016.1
20260902011848 27 103 1.6 4.8 0.00 0.00 0.00 69 1016.0
20260902011119 27 96 3.2 9.7 0.00 0.00 0.00 69 1016.0
20260902010613 27 85 4.8 9.7 0.00 0.00 0.00 69 1016.0
20260902010107 27 77 4.8 11.3 0.00 0.00 0.00 71 1016.1
20260902005602 27 353 6.4 11.3 0.00 0.00 0.00 72 1016.1
20260902005055 27 302 6.4 12.9 0.00 0.00 0.00 75 1016.1
20260902004549 27 300 6.4 12.9 0.00 0.00 0.00 75 1016.1
20260902004044 27 276 6.4 12.9 0.00 0.00 0.00 75 1016.1
20260902003538 27 280 6.4 12.9 0.00 0.00 0.00 75 1016.0
20260902003510 26 286 6.4 14.5 0.00 0.00 0.00 76 1016.0
20260902002748 26 280 8.0 14.5 0.00 0.00 0.00 77 1016.1
20260902002028 27 293 6.4 12.9 0.00 0.00 0.00 78 1016.1
20260902001528 27 283 4.8 12.9 0.00 0.00 0.00 77 1016.0
20260902001028 26 266 4.8 11.3 0.00 0.00 0.00 77 1016.0
20260902000528 27 284 6.4 11.3 0.00 0.00 0.00 78 1016.0
20260902000028 26 284 6.4 9.7 0.00 0.00 0.00 78 1016.0
20260902000008 26 280 4.8 9.7 0.00 0.00 0.00 78 1015.9
20260901235028 26 279 3.2 9.7 0.00 0.00 0.00 76 1015.9
20260901234528 27 316 4.8 11.3 0.00 0.00 0.00 76 1015.9
20260901234028 26 283 6.4 11.3 0.00 0.00 0.00 75 1015.8
20260901233529 27 283 6.4 11.3 0.00 0.00 0.00 74 1015.8
20260901233029 27 302 6.4 9.7 0.00 0.00 0.00 73 1015.7
20260901232529 27 305 6.4 9.7 0.00 0.00 0.00 72 1015.7
20260901232028 27 278 6.4 9.7 0.00 0.00 0.00 73 1015.7
20260901231528 27 304 6.4 9.7 0.00 0.00 0.00 74 1015.7
20260901231027 27 316 6.4 9.7 0.00 0.00 0.00 74 1015.8
20260901230526 27 299 6.4 11.3 0.00 0.00 0.00 75 1015.7
20260901230026 27 297 6.4 11.3 0.00 0.00 0.00 75 1015.8
20260901225526 27 284 6.4 11.3 0.00 0.00 0.00 75 1015.8
20260901225246 27 297 6.4 14.5 0.00 0.00 0.00 76 1015.8
20260901224523 27 318 6.4 14.5 0.00 0.00 0.00 76 1015.7
20260901224024 27 307 6.4 9.7 0.00 0.00 0.00 76 1015.7
20260901223522 27 262 4.8 9.7 0.00 0.00 0.00 77 1015.6
20260901223022 27 313 4.8 9.7 0.00 0.00 0.00 77 1015.6
20260901222745 26 308 6.4 11.3 0.00 0.00 0.00 77 1015.6
20260901222021 27 304 4.8 11.3 0.00 0.00 0.00 77 1015.6
20260901221522 27 278 4.8 9.7 0.00 0.00 0.00 77 1015.6
20260901220522 27 300 4.8 8.0 0.00 0.00 0.00 76 1015.7
20260901220022 27 311 3.2 8.0 0.00 0.00 0.00 75 1015.6
20260901215521 27 308 1.6 4.8 0.00 0.00 0.00 73 1015.6
20260901215015 27 304 1.6 4.8 0.00 0.00 0.00 72 1015.7
20260901214512 27 260 1.6 3.2 0.00 0.00 0.00 72 1015.7
20260901214012 27 260 1.6 3.2 0.00 0.00 0.00 71 1015.8
20260901213512 27 259 1.6 4.8 0.00 0.00 0.00 71 1015.7
20260901213012 27 239 1.6 4.8 0.00 0.00 0.00 70 1015.7
20260901212509 27 226 0.0 3.2 0.00 0.00 0.00 71 1015.6
20260901212009 27 226 0.0 1.6 0.00 0.00 0.00 71 1015.5
20260901211509 27 226 0.0 1.6 0.00 0.00 0.00 70 1015.5
20260901211010 27 226 0.0 1.6 0.00 0.00 0.00 71 1015.5
20260901210509 27 226 0.0 1.6 0.00 0.00 0.00 71 1015.6
20260901210007 27 226 0.0 1.6 0.00 0.00 0.00 71 1015.5
20260901205502 27 226 0.0 0.0 0.00 0.00 0.00 71 1015.4
20260901205218 27 226 0.0 1.6 0.00 0.00 0.00 71 1015.4
20260901204452 27 226 0.0 4.8 0.00 0.00 0.00 71 1015.4
20260901204210 27 194 1.6 4.8 0.00 0.00 0.00 71 1015.4
20260901203452 27 186 1.6 4.8 0.00 0.00 0.00 70 1015.4
20260901202950 27 146 1.6 4.8 0.00 0.00 0.00 70 1015.3
20260901202708 27 218 1.6 4.8 0.00 0.00 0.00 70 1015.3
20260901202216 27 226 0.0 4.8 0.00 0.00 0.00 69 1015.3
20260901201450 27 163 0.0 3.2 0.00 0.00 0.00 69 1015.4
20260901201208 27 160 0.0 3.2 0.00 0.00 0.00 69 1015.3
20260901200448 27 189 1.6 6.4 0.00 0.00 0.00 69 1015.3
20260901195948 27 191 1.6 6.4 0.00 0.00 0.00 68 1015.4
20260901195448 27 219 0.0 3.2 0.00 0.00 0.00 68 1015.3
20260901194948 27 196 0.0 1.6 0.00 0.00 0.00 68 1015.3
20260901194448 27 196 1.6 4.8 0.00 0.00 0.00 68 1015.2
20260901194434 27 207 1.6 4.8 0.00 0.00 0.00 69 1015.3
20260901193446 27 213 1.6 3.2 0.00 0.00 0.00 68 1015.3
20260901192946 28 213 0.0 3.2 0.00 0.00 0.00 67 1015.3
20260901192443 27 313 0.0 0.0 0.00 0.00 0.00 65 1015.3
20260901192419 27 313 0.0 0.0 0.00 0.00 0.00 65 1015.2
20260901191440 28 313 0.0 3.2 0.00 0.00 0.00 65 1015.2
20260901190940 28 314 0.0 3.2 0.00 0.00 0.00 65 1015.2
20260901190440 28 92 1.6 4.8 0.00 0.00 0.00 65 1015.2
20260901190207 28 92 1.6 4.8 0.00 0.00 0.00 65 1015.1
20260901185930 28 85 1.6 4.8 0.00 0.00 0.00 65 1015.1
20260901184940 28 110 1.6 3.2 0.00 0.00 0.00 65 1015.1
20260901184440 28 110 0.0 3.2 0.00 0.00 0.00 66 1015.0
20260901183935 28 141 0.0 3.2 0.00 0.00 0.00 66 1014.8
20260901183923 28 150 1.6 6.4 0.00 0.00 0.00 66 1014.6
20260901182936 28 99 1.6 6.4 0.00 0.00 0.00 66 1014.5
20260901182436 28 125 0.0 3.2 0.00 0.00 0.00 66 1014.5
20260901182153 28 148 0.0 3.2 0.00 0.00 0.00 66 1014.4
20260901181436 28 168 0.0 3.2 0.00 0.00 0.00 66 1014.3
20260901180936 28 133 0.0 4.8 0.00 0.00 0.00 66 1014.2
20260901180658 28 174 1.6 4.8 0.00 0.00 0.00 66 1014.0
20260901180154 28 203 1.6 6.4 0.00 0.00 0.00 65 1014.0
20260901175436 28 201 1.6 9.7 0.00 0.00 0.00 65 1013.9
20260901174935 28 213 1.6 9.7 0.00 0.00 0.00 65 1013.8
20260901174705 28 248 1.6 8.0 0.00 0.00 0.00 64 1013.8
20260901173932 28 172 3.2 9.7 0.00 0.00 0.00 64 1013.8
20260901173432 28 159 3.2 14.5 0.00 0.00 0.00 64 1013.6
20260901172933 28 121 4.8 14.5 0.00 0.00 0.00 64 1013.7
20260901172429 28 131 6.4 12.9 0.00 0.00 0.00 63 1013.6
20260901171930 28 127 6.4 14.5 0.00 0.00 0.00 63 1013.7
20260901171647 28 123 4.8 14.5 0.00 0.00 0.00 62 1013.8
20260901170927 28 149 4.8 14.5 0.00 0.00 0.00 62 1013.8
20260901170427 28 148 4.8 14.5 0.00 0.00 0.00 62 1013.8
20260901165927 28 236 6.4 12.9 0.00 0.00 0.00 62 1013.8
20260901165429 29 153 6.4 11.3 0.00 0.00 0.00 61 1013.9
20260901164928 29 120 6.4 20.9 0.00 0.00 0.00 60 1013.9
20260901164427 29 137 6.4 20.9 0.00 0.00 0.00 60 1013.8
20260901163928 29 225 8.0 19.3 0.00 0.00 0.00 60 1013.8
20260901163641 30 148 6.4 14.5 0.00 0.00 0.00 60 1013.7
20260901163143 30 151 4.8 14.5 0.00 0.00 0.00 60 1013.8
20260901162410 30 184 6.4 14.5 0.00 0.00 0.00 61 1013.7
20260901162350 30 172 6.4 14.5 0.00 0.00 0.00 61 1013.7
20260901161357 30 154 4.8 12.9 0.00 0.00 0.00 61 1013.7
20260901161107 30 209 4.8 14.5 0.00 0.00 0.00 60 1013.7
20260901160349 31 194 4.8 14.5 0.00 0.00 0.00 61 1013.5
20260901155834 31 184 4.8 14.5 0.00 0.00 0.00 60 1013.4
20260901155545 31 210 6.4 14.5 0.00 0.00 0.00 59 1013.4
20260901154822 31 160 8.0 14.5 0.00 0.00 0.00 58 1013.4
20260901154316 31 184 8.0 14.5 0.00 0.00 0.00 58 1013.4
20260901153810 31 197 8.0 16.1 0.00 0.00 0.00 57 1013.4
20260901153304 31 212 9.7 17.7 0.00 0.00 0.00 56 1013.4
20260901153022 31 165 8.0 17.7 0.00 0.00 0.00 54 1013.5
20260901152253 31 207 9.7 16.1 0.00 0.00 0.00 54 1013.5
20260901152006 31 176 8.0 16.1 0.00 0.00 0.00 53 1013.6
20260901151241 31 230 8.0 14.5 0.00 0.00 0.00 53 1013.5
20260901150735 31 94 8.0 16.1 0.00 0.00 0.00 53 1013.5
20260901150228 31 168 6.4 16.1 0.00 0.00 0.00 53 1013.5
20260901150205 32 228 6.4 12.9 0.00 0.00 0.00 52 1013.5
20260901145217 32 205 6.4 14.5 0.00 0.00 0.00 52 1013.5
20260901144711 32 211 6.4 14.5 0.00 0.00 0.00 52 1013.5
20260901144421 32 213 6.4 16.1 0.00 0.00 0.00 52 1013.4
20260901143659 32 212 8.0 17.7 0.00 0.00 0.00 51 1013.5
20260901143152 32 259 4.8 17.7 0.00 0.00 0.00 50 1013.5
20260901142646 32 172 4.8 11.3 0.00 0.00 0.00 49 1013.5
20260901142141 32 194 4.8 16.1 0.00 0.00 0.00 51 1013.5
20260901142127 32 169 6.4 16.1 0.00 0.00 0.00 50 1013.5
20260901141129 32 162 8.0 16.1 0.00 0.00 0.00 51 1013.5
20260901140627 32 250 9.7 19.3 0.00 0.00 0.00 51 1013.6
20260901140127 32 105 9.7 19.3 0.00 0.00 0.00 50 1013.6
20260901135627 32 182 9.7 17.7 0.00 0.00 0.00 51 1013.5
20260901135133 32 248 8.0 17.7 0.00 0.00 0.00 49 1013.6
20260901134627 32 213 6.4 16.1 0.00 0.00 0.00 48 1013.6
20260901134127 32 240 6.4 14.5 0.00 0.00 0.00 48 1013.6
20260901133627 32 79 6.4 14.5 0.00 0.00 0.00 48 1013.7
20260901133127 32 172 6.4 14.5 0.00 0.00 0.00 49 1013.8
20260901133109 32 250 6.4 20.9 0.00 0.00 0.00 50 1013.8
20260901132127 32 214 4.8 20.9 0.00 0.00 0.00 53 1013.8
20260901131627 32 183 4.8 12.9 0.00 0.00 0.00 53 1013.9
20260901131351 32 203 6.4 16.1 0.00 0.00 0.00 51 1013.9
20260901130625 32 275 6.4 16.1 0.00 0.00 0.00 51 1013.9
20260901130125 32 233 4.8 14.5 0.00 0.00 0.00 50 1014.0
20260901125627 32 202 4.8 12.9 0.00 0.00 0.00 50 1014.1
20260901125127 32 172 3.2 11.3 0.00 0.00 0.00 51 1014.1
20260901124626 32 217 3.2 11.3 0.00 0.00 0.00 52 1014.1
20260901124125 32 224 4.8 12.9 0.00 0.00 0.00 53 1014.1
20260901123625 31 245 6.4 14.5 0.00 0.00 0.00 54 1014.1
20260901123125 31 207 6.4 17.7 0.00 0.00 0.00 53 1014.1
20260901122622 31 193 4.8 17.7 0.00 0.00 0.00 53 1014.2
20260901122120 31 131 6.4 16.1 0.00 0.00 0.00 52 1014.3
20260901121621 31 272 6.4 14.5 0.00 0.00 0.00 52 1014.4
20260901121121 31 241 6.4 16.1 0.00 0.00 0.00 53 1014.5
20260901120620 31 209 6.4 16.1 0.00 0.00 0.00 51 1014.6
20260901120120 31 193 8.0 16.1 0.00 0.00 0.00 52 1014.6
20260901115620 31 100 8.0 17.7 0.00 0.00 0.00 51 1014.7
20260901115123 31 276 8.0 19.3 0.00 0.00 0.00 53 1014.7
20260901114620 31 259 8.0 19.3 0.00 0.00 0.00 53 1014.7
20260901114120 31 267 8.0 16.1 0.00 0.00 0.00 54 1014.7
20260901113621 31 226 6.4 16.1 0.00 0.00 0.00 56 1014.7
20260901113121 30 270 6.4 14.5 0.00 0.00 0.00 58 1014.7
20260901112845 30 231 6.4 16.1 0.00 0.00 0.00 56 1014.8
20260901112115 30 299 4.8 16.1 0.00 0.00 0.00 59 1014.7
20260901111612 30 268 4.8 12.9 0.00 0.00 0.00 58 1014.8
20260901111113 30 280 8.0 17.7 0.00 0.00 0.00 61 1014.8
20260901110613 30 236 9.7 17.7 0.00 0.00 0.00 61 1014.8
20260901110113 30 267 8.0 17.7 0.00 0.00 0.00 60 1014.9
20260901105613 30 266 6.4 17.7 0.00 0.00 0.00 59 1014.9
20260901105113 30 217 6.4 17.7 0.00 0.00 0.00 59 1014.9
20260901104612 30 236 6.4 17.7 0.00 0.00 0.00 60 1014.9
20260901104112 30 231 8.0 17.7 0.00 0.00 0.00 62 1015.0
20260901103613 30 254 6.4 17.7 0.00 0.00 0.00 60 1015.1
20260901103113 30 284 4.8 14.5 0.00 0.00 0.00 58 1015.0
20260901102612 30 265 4.8 12.9 0.00 0.00 0.00 55 1015.1
20260901102110 30 204 4.8 12.9 0.00 0.00 0.00 57 1015.2
20260901101611 30 276 6.4 14.5 0.00 0.00 0.00 57 1015.2
20260901101110 30 274 6.4 16.1 0.00 0.00 0.00 55 1015.3
20260901100611 30 212 6.4 16.1 0.00 0.00 0.00 55 1015.4
20260901100107 29 245 8.0 14.5 0.00 0.00 0.00 54 1015.4
20260901095606 29 234 8.0 14.5 0.00 0.00 0.00 57 1015.4
20260901095107 29 324 8.0 14.5 0.00 0.00 0.00 56 1015.3
20260901094607 29 243 8.0 14.5 0.00 0.00 0.00 56 1015.3
20260901094107 29 207 8.0 14.5 0.00 0.00 0.00 59 1015.3
20260901093814 29 295 4.8 11.3 0.00 0.00 0.00 59 1015.2
20260901093656 29 262 6.4 12.9 0.00 0.00 0.00 60 1015.2
20260901092607 29 222 4.8 9.7 0.00 0.00 0.00 57 1015.3
20260901092107 29 255 3.2 8.0 0.00 0.00 0.00 59 1015.4
20260901091602 29 295 3.2 9.7 0.00 0.00 0.00 57 1015.5